Weather History for PHJR - March, 2014

Change the Weather History Date:

Thursday, March 20, 2014

  Actual Average (PHNL) Record (PHNL)
Temperature  
Mean Temperature 72 °F 75 °F  
Max Temperature 82 °F 81 °F 88 °F (1998)
Min Temperature 61 °F 68 °F 60 °F (1981)
Degree Days  
Heating Degree Days 0 0  
Month to date heating degree days 0  
Since 1 July heating degree days 0  
Cooling Degree Days 6 10  
Month to date cooling degree days 183  
Year to date cooling degree days 665  
Growing Degree Days 22 (Base 50)    
Moisture  
Dew Point 60 °F    
Average Humidity 66    
Maximum Humidity 87    
Minimum Humidity 45    
Precipitation  
Precipitation 0.00 in 0.06 in 1.69 in (1991)
Month to date precipitation 1.37  
Year to date precipitation 5.67  
Snow  
Snow 0.00 in - - ()
Month to date snowfall  
Since 1 July snowfall  
Snow Depth -    
Sea Level Pressure  
Sea Level Pressure 30.04 in    
Wind  
Wind Speed 3 mph (ENE)    
Max Wind Speed 10 mph    
Max Gust Speed 16 mph    
Visibility 10 miles    
Events      
T = Trace of Precipitation, MM = Missing Value Source: NWS Daily Summary

Daily Weather History Graph

Daily Weather History Graph

Search for Another Location

Airport or City:

Trip Planner

Search our weather history database for the weather conditions in past years. The results will help you decide how hot, cold, wet, or windy it might be!

Date:

Astronomy

Mar. 20, 2014 Rise Set
Actual Time 6:36 AM HST 6:43 PM HST
Civil Twilight 6:13 AM HST 7:05 PM HST
Nautical Twilight 5:48 AM HST 7:31 PM HST
Astronomical Twilight 5:22 AM HST 7:57 PM HST
Moon 10:42 PM HST (3/20) 9:20 AM HST (3/20)
Length of Visible Light 12h 51m
Length of Day
12h 07m
Waning Gibbous, 82% of the Moon is Illuminated
Mar 20
Waning Gibbous
Mar 23
Last Quarter
Mar 30
New
Apr 6
First Quarter
Apr 14
Full

Hourly Weather History & Observations

Time (HST) Temp. Heat Index Dew Point Humidity Pressure Visibility Wind Dir Wind Speed Gust Speed Precip Events Conditions
12:53 AM 64.9 °F - 59.0 °F 81% 30.04 in 10.0 mi Calm Calm - N/A   Clear
1:53 AM 64.0 °F - 57.9 °F 80% 30.03 in 10.0 mi Calm Calm - N/A   Clear
2:53 AM 62.1 °F - 57.9 °F 86% 30.01 in 10.0 mi Calm Calm - N/A   Clear
3:53 AM 63.0 °F - 57.9 °F 84% 30.00 in 10.0 mi Calm Calm - N/A   Clear
4:53 AM 61.0 °F - 57.0 °F 87% 30.00 in 10.0 mi Calm Calm - N/A   Partly Cloudy
5:53 AM 63.0 °F - 57.9 °F 84% 30.01 in 10.0 mi Calm Calm - N/A   Clear
6:53 AM 64.9 °F - 59.0 °F 81% 30.03 in 10.0 mi Variable 3.5 mph - N/A   Clear
7:53 AM 72.0 °F - 62.1 °F 71% 30.04 in 10.0 mi Variable 5.8 mph - N/A   Clear
8:53 AM 75.9 °F - 61.0 °F 60% 30.06 in 10.0 mi Variable 6.9 mph - N/A   Clear
9:53 AM 77.0 °F - 61.0 °F 58% 30.07 in 10.0 mi Variable 4.6 mph - N/A   Partly Cloudy
10:53 AM 80.1 °F 81.1 °F 61.0 °F 52% 30.06 in 10.0 mi ENE 5.8 mph - N/A   Partly Cloudy
11:53 AM 82.0 °F 82.4 °F 60.1 °F 47% 30.06 in 10.0 mi ENE 8.1 mph - N/A   Partly Cloudy
12:53 PM 82.0 °F 82.1 °F 59.0 °F 45% 30.04 in 10.0 mi ENE 8.1 mph - N/A   Scattered Clouds
1:00 PM 80.6 °F 80.8 °F 57.2 °F 45% 30.01 in 10.0 mi Variable 4.6 mph - N/A   Mostly Cloudy
1:53 PM 81.0 °F 81.1 °F 57.9 °F 45% 30.01 in 10.0 mi ENE 8.1 mph - N/A   Scattered Clouds
2:53 PM 82.0 °F 82.4 °F 60.1 °F 47% 29.99 in 10.0 mi ENE 10.4 mph 16.1 mph N/A   Partly Cloudy
3:53 PM 79.0 °F - 59.0 °F 50% 29.99 in 10.0 mi ENE 8.1 mph - N/A   Partly Cloudy
4:53 PM 80.1 °F 80.9 °F 60.1 °F 50% 30.00 in 10.0 mi NE 8.1 mph - N/A   Partly Cloudy
5:53 PM 77.0 °F - 60.1 °F 56% 30.02 in 10.0 mi Variable 4.6 mph - N/A   Clear
6:45 PM 73.4 °F - 60.8 °F 65% 30.01 in 10.0 mi Variable 4.6 mph - N/A   Partly Cloudy
6:53 PM 73.0 °F - 60.1 °F 64% 30.04 in 10.0 mi Variable 4.6 mph - N/A   Partly Cloudy
7:53 PM 71.1 °F - 61.0 °F 70% 30.06 in 10.0 mi Variable 3.5 mph - N/A   Clear
8:53 PM 70.0 °F - 61.0 °F 73% 30.08 in 10.0 mi Calm Calm - N/A   Clear
9:53 PM 69.1 °F - 61.0 °F 75% 30.09 in 10.0 mi Calm Calm - N/A   Clear
10:53 PM 70.0 °F - 61.0 °F 73% 30.10 in 10.0 mi Variable 4.6 mph - N/A   Clear
11:27 PM 69.8 °F - 60.8 °F 73% 30.07 in 10.0 mi Variable 3.5 mph - N/A   Partly Cloudy
11:53 PM 69.1 °F - 61.0 °F 75% 30.09 in 10.0 mi Variable 3.5 mph - N/A   Clear